Regional Weather Roundup
Issued by NWS Jackson, KY

Home | Current Version | Previous Version | Graphics & Text | Print | Product List | Glossary On
Versions: 1 2 3 4 5 6 7 8 9 10 11 12 13 14 15 16 17 18 19 20 21 22 23 24 25 26 27 28 29 30 31 32 33 34 35 36 37 38 39 40 41 42 43 44 45 46 47 48 49 50
000
ASUS43 KJKL 301510
RWRJKL

EAST KENTUCKY HOURLY WEATHER ROUNDUP
NATIONAL WEATHER SERVICE JACKSON KY
1100 AM EDT THU JUL 30 2015

NOTE: "FAIR" INDICATES FEW OR NO CLOUDS BELOW 12,000 FEET WITH
NO SIGNIFICANT WEATHER AND/OR OBSTRUCTIONS TO VISIBILITY.

* THESE REPORTS ARE NOT UNDER NWS QUALITY CONTROL AND MAY NOT
  REPORT WEATHER SUCH AS PRECIPITATION AND FOG.

KYZ079-080-083-085-087-088-110-112-115-119-120-301600
...EASTERN KENTUCKY...

CITY           SKY/WX    TMP DP  RH WIND       PRES   REMARKS
JACKSON        SUNNY     81  67  62 CALM      30.09R
LONDON         SUNNY     83  64  52 VRB6      30.09S
SOMERSET*      SUNNY     77  64  65 NE8       30.10S
MONTICELLO*    SUNNY     81  70  69 CALM      30.12S
MIDDLESBORO*   CLOUDY    78  72  82 NE5       30.08F
HAZARD APT*    CLOUDY    79  68  69 CALM      30.09R
BLACK MTN*       N/A     68  68 100 N1          N/A
PIKEVILLE APT* CLOUDY    79  72  78 W5        30.09
BIG SANDY*     CLOUDY    78  69  72 NE6       30.08R
MOREHEAD APT*  SUNNY     81  61  50 N8        30.10S
$$

KYZ035-036-041-042-044-050-067-078-099-301600
...CENTRAL KENTUCKY...

CITY           SKY/WX    TMP DP  RH WIND       PRES   REMARKS
MT STERLING*   SUNNY     79  64  61 NE5       30.10S
FLEMING/MASON* SUNNY     79  63  57 N7        30.10R
DANVILLE*      MOSUNNY   77  64  65 N9        30.11S
RICHMOND*      MOSUNNY   77  61  57 NE5       30.10R
LEXINGTON      SUNNY     78  64  61 N7        30.10S
FRANKFORT      SUNNY     79  61  53 VRB5      30.09S
$$

KYZ091>093-OHZ055-061-077-WVZ005-015-034-035-042-301600
...SOUTHERN OHIO/WEST VIRGINIA...

CITY           SKY/WX    TMP DP  RH WIND       PRES   REMARKS
COVINGTON      MOSUNNY   76  60  58 N8        30.09S
COLUMBUS       MOSUNNY   79  60  52 NW8       30.03S
DAYTON         MOSUNNY   77  63  61 N9        30.08S
WILMINGTON     SUNNY     77  60  55 N7        30.07S
HUNTINGTON     MOSUNNY   81  62  52 N7        30.05R
CHARLESTON     MOSUNNY   80  70  71 W6        30.04R
PINEVILLE*     CLOUDY    75  75 100 MISG      30.12S FOG
BECKLEY        PTSUNNY   75  70  84 W8        30.11R
BLUEFIELD      CLOUDY    75  70  84 W3        30.14R
$$

VAZ002-007-008-TNZ017-027-036-066-071-301600
...SOUTHWEST VIRGINIA/EAST TENNESSEE...

CITY           SKY/WX    TMP DP  RH WIND       PRES   REMARKS
WISE*          CLOUDY    73  73 100 CALM      30.16R
ABINGDON*      CLOUDY    80  70  73 CALM      30.10S
BRISTOL        PTSUNNY   81  72  74 S3        30.07S
KNOXVILLE      MOSUNNY   82  71  69 VRB5      30.05F
OAK RIDGE      MOSUNNY   84  73  69 E5        30.07S HX  90
CROSSVILLE     MOSUNNY   79  68  69 N6        30.13S
NASHVILLE      MOSUNNY   83  62  49 NE12      30.11R
$$

...KEY TO REMARKS...
VSB - VISIBILITY IN MILES
WCI - WIND CHILL INDEX
HX  - HEAT INDEX

$$


USA.gov is the U.S. government's official web portal to all federal, state and local government web resources and services.